Regional Weather Roundup
Issued by NWS

Home | Current Version | Previous Version | Text Only | Print | Product List | Glossary On
Versions: 1 2 3 4 5 6 7 8 9 10 11 12 13 14 15 16 17 18 19 20 21 22 23 24 25 26 27 28 29 30 31 32 33 34 35 36 37 38 39 40 41 42 43 44 45 46 47 48 49 50
000
ASHW40 PHFO 181512
RWRHI

WEATHER ROUNDUP FOR HAWAII
NATIONAL WEATHER SERVICE HONOLULU HI
500 AM HST MON DEC 18 2017

THIS IS AN AUTOMATED REPORT THAT HAS NOT BEEN QUALITY CONTROLLED.

NOTE..."FAIR" INDICATES FEW OR NO CLOUDS BELOW 12,000 FEET WITH NO
SIGNIFICANT WEATHER AND/OR OBSTRUCTIONS TO VISIBILITY.

* - THESE SITES REPORT LIMITED FIELDS
# - BUOY DATA PROVIDED BY PACIFIC ISLANDS OCEAN OBSERVING SYSTEM.

HIZ001>004-181600-
KAUAI-NIIHAU-

CITY           SKY/WX    TMP DP  RH WIND       PRES   REMARKS
LIHUE APT      PTCLDY    60  60 100 W8        29.92S
PORT ALLEN*      N/A     64 N/A N/A NE7         N/A
POIPU*           N/A     61 N/A N/A NE3         N/A
PRINCEVILLE*   NOT AVBL
KOKOLE POINT*  NOT AVBL
MOLOAA DAIRY*    N/A     64  64 100 W2          N/A
WAIMEA HTS*    NOT AVBL
PUU OPAE*      NOT AVBL
PUU LUA*       NOT AVBL
MAKAHA RIDGE*  NOT AVBL
$$

HIZ005>011-181600-
OAHU-

CITY           SKY/WX    TMP DP  RH WIND       PRES   REMARKS
HONOLULU       MOCLDY    68  62  81 N3        29.90S
KALAELOA       MOCLDY    64  61  90 NE6       29.92R
KANEOHE MCB    NOT AVBL
WHEELER FIELD  PTCLDY    61  57  88 CALM      29.99R
BELLOWS*       NOT AVBL
KAHUKU*        NOT AVBL
WHEELER*       NOT AVBL
WAIANAE HARBOR NOT AVBL
DILLINGHAM*    NOT AVBL
KAHUKU TRN*      N/A     75  72  88 VRB3        N/A
KAWAILOA*        N/A     66  59  77 E3          N/A
KII*             N/A     64  61  88 S3          N/A
MAKUA RANGE*     N/A     66  59  77 W7          N/A
OAHU FOREST NW NOT AVBL
SCHOFIELD BRK*   N/A     61  59  94 MISG        N/A
SCHOFIELD S*   NOT AVBL
WAIANAE VLY*   NOT AVBL
KUAOKALA*      NOT AVBL
HONOULIUULI*   NOT AVBL
MOKUOLOE IS*   NOT AVBL
PALEHUA*       NOT AVBL
WAIAWA PHB*    NOT AVBL
$$

HIZ012>013-181600-
MOLOKAI-

CITY           SKY/WX    TMP DP  RH WIND       PRES   REMARKS
MOLOKAI AIRPT  MOCLDY    65  64  97 NE3       29.92S
KALAUPAPA      NOT AVBL
MAKAPULAPAI*   NOT AVBL
MOLOKAI 1*     NOT AVBL
PUU ALII*      NOT AVBL
$$

HIZ016-181600-
KAHOOLAWE-

CITY           SKY/WX    TMP DP  RH WIND       PRES   REMARKS
KAHOOLAWE*     NOT AVBL
HAKIOAWA*      NOT AVBL
HONOKANAIA*    NOT AVBL
KANELOA*         N/A     72  66  83 N8G15     29.97S
KEALIALALO*    NOT AVBL
LUA MAKIKA*    NOT AVBL
$$

HIZ014>015-181600-
LANAI-

CITY           SKY/WX    TMP DP  RH WIND       PRES   REMARKS
LANAI CITY     FAIR      64  61  90 NE7       29.96S
LANAI 1*       NOT AVBL
$$

HIZ017>028-181600-
MAUI-

CITY           SKY/WX    TMP DP  RH WIND       PRES   REMARKS
KAHULUI        MOCLDY    66  65  96 SE5       29.91R
KAPALUA-W MAUI NOT AVBL
HANA AIRPORT   FOG       68  68 100 CALM      29.94S VSB 1/2
HANA*            N/A     70 N/A N/A S2          N/A
HALEAKALA SUMM   N/A     43  43 100 SW13        N/A
MAALAEA BAY*   NOT AVBL
HALEAKALA*     NOT AVBL
KAUPO GAP*     NOT AVBL
KULA 1*          N/A     54  53  96 S5G10       N/A
$$

HIZ023>026-181600-
BIG ISLAND OF HAWAII COAST AND LOWER SLOPES-

CITY           SKY/WX    TMP DP  RH WIND       PRES   REMARKS
KAILUA KONA    CLOUDY    73  64  73 NE3       29.90R
HILO           LGT RAIN  69  66  90 SW6       29.91S
HONOKAA*         N/A     63 N/A N/A VRB1        N/A
KAWAIHAE MWT*    N/A     72 N/A N/A E2          N/A
KAWAIHAE*      NOT AVBL
SOUTH POINT*     N/A     68 N/A N/A NW8         N/A
UPOLU AIRPORT* NOT AVBL
KAMUELA*       NOT AVBL
HAKALAU*         N/A     45  43  93 SW2         N/A
KALOKO-HONOKO* NOT AVBL
PALI 2*          N/A    N/A N/A N/A S3          N/A
KEALAKOMO*       N/A     73  70  88 N3          N/A
KAUPULEHU*     NOT AVBL
KAPAPALA*        N/A     63  62  97 NE3         N/A
LOWER KAHUKU*  NOT AVBL
PUHE CS*       NOT AVBL
PUHO CS*       NOT AVBL
PTA KEAMUKU*     N/A     61  55  82 E7          N/A
WAIKOLOA*      NOT AVBL
$$

HIZ027>028-181600-
BIG ISLAND OF HAWAII INTERIOR AND SUMMMITS-

CITY           SKY/WX    TMP DP  RH WIND       PRES   REMARKS
BRADSHAW FIELD NOT AVBL
MK VISITOR CEN   N/A     46  34  61 NW10        N/A
MAUNA KEA*       N/A     28  25  86 SW45        N/A  WCI  10
MAUNA LOA*     NOT AVBL
MAUNA LOA 1*   NOT AVBL
PTA KIPUKA*      N/A     72  70  94 NW3         N/A
PTA RANGE 17*    N/A     50  48  93 NW1G8       N/A
PTA WEST*        N/A     70  66  88 SE7         N/A
NENE CABIN*    NOT AVBL
AHUMOA*        NOT AVBL
PTA PORTABLE*  NOT AVBL
PUU MALI*        N/A     54  52  94 SE7         N/A
$$

HIC003-181600-
NORTHWEST ISLANDS-

CITY           SKY/WX    TMP DP  RH WIND       PRES   REMARKS
MIDWAY ISLAND  CLOUDY    66  57  72 NE25G31   30.18F
MIDWAY NOS*    NOT AVBL
FRENCH FRIGATE NOT AVBL
$$

PHZ110>124-180-181600-
BUOY REPORTS

STATION/POSITION TIME  TEMP    WIND        PRES    WAVE   SWELL
                       AIR SEA DIR/SP/G            HT/PER HT/DIR
                 (UTC) (F)     (DEG/KT/KT) (MB)    (FT/S) (FT/D)
BUOY 51001       1450   73 76   80/  8/ 12 1012.2F   7/11   7
BUOY 51101       1450   72 74   40/  8/ 10 1013.0F   9/11  10/ 70
BUOY 51100       NOT AVBL
BUOY 51002       1450   78 78   90/ 12/ 16 1011.1R   7/10   7/ 70
BUOY 51003       1450   75 77   50/ 12/ 14 1011.1F   7/10   7/ 80
BUOY 51004       1450   78 79  100/ 14/ 17 1012.2R   7/ 8   5/ 80
WAIMEA BAY#      NOT AVBL
MOKAPU POINT#    1434      76                N/A     5/11   3/ 80
LANAI#           NOT AVBL
BARBERS PT 2#    NOT AVBL
PAUWELA#         1430      77                N/A     7/10   3/ 90
HILO#            1457      75                N/A     8/10   3/ 80
KANEOHE BAY#     NOT AVBL
KANEOHE BAY 2#   NOT AVBL
HANALEI#         1452      76                N/A     7/13   5/310
KAHULUI HARBOR   1442   70 76  150/  1/  2 1012.6S
HONOLULU HARBOR  1442   69 77   CALM  /  2 1013.5R
PEARL HARBOR#    1430      78                N/A     2/ 9
KILO NALU        NOT AVBL
HILO HARBOR      1442   71 77  180/  2/  4 1012.6R
MOKUOLOE         1436   67 74     CALM     1012.9R
NAWILIWILI       1442   63 76  280/  4/  6 1012.9S
WHOTS BUOY       NOT AVBL
BUOY 51028       NOT AVBL
$$

......................KEY........................................
  SKY/WX - SKY CONDITIONS/PRESENT WEATHER
  TMP    - TEMPERATURE IN FAHRENHEIT
  DWPT   - DEWPOINT IN FAHRENHEIT
  RH     - RELATIVE HUMIDITY IN PERCENT
  WIND   - DIRECTION AND SPEED /MPH FOR ISLANDS...KTS FOR BUOYS/
  PRES   - MEAN SEA LEVEL PRESSURE IN INCHES OF HG
  VSB    - VISIBILITY IN MILES
  HX     - HEAT INDEX
  WCI    - WIND CHILL INDEX
  VRB    - VARIABLE WIND DIRECTION
  N/A    - NOT AVAILABLE




USA.gov is the U.S. government's official web portal to all federal, state and local government web resources and services.